Location: Kalispell
(48.1967°N, 114.3128°W)
Time: 17:52:13
(UTC-07:00)

Amateur Radio Satellites - All Passes

Search period start: 27 February 2017 17:22
Search period end: 28 February 2017 17:22
Location: Kalispell, 48.1967°N, 114.3128°W

Satellite Date Start Highest point End Downlink Frequencies (MHz)
Time Altitude Azimuth
XW-2D 27 Feb 17:25:08 17:28:47 42° 71° (ENE) 17:32:28 145.860 - 145.880
ITUPSAT 1 27 Feb 17:27:59 17:30:30 14° 305° (NW) 17:33:00 437.325
MOZHAYETS 4 27 Feb 17:29:45 17:33:29 25° 297° (WNW) 17:37:12
CUTE-I 27 Feb 17:29:49 17:35:00 54° 69° (ENE) 17:40:14 437.470
XW-2B 27 Feb 17:30:11 17:33:54 47° 71° (ENE) 17:37:37 145.730 - 145.750
BEESAT 27 Feb 17:33:10 17:35:14 13° 306° (NW) 17:37:19 436.000
XW-2C 27 Feb 17:38:50 17:42:38 60° 73° (ENE) 17:46:28 145.795 - 145.815
KKS-1 27 Feb 17:41:04 17:45:30 61° 289° (WNW) 17:49:55 437.445
NUDT-PHONESAT 27 Feb 17:41:26 17:45:07 52° 72° (ENE) 17:48:49 437.300
M-CUBED/EXP-1 PRIME 27 Feb 17:42:49 17:46:03 25° 102° (ESE) 17:49:28 437.505
CUTE 1.7 + AOD 2 27 Feb 17:48:04 17:49:51 12° 58° (ENE) 17:51:37 437.475
LilacSat-2 27 Feb 17:58:26 18:02:20 79° 257° (WSW) 18:06:15 437.200
PCSat 27 Feb 18:02:40 18:07:26 31° 320° (NW) 18:12:15 145.827
STARS 27 Feb 18:07:44 18:12:10 69° 288° (WNW) 18:16:35 437.465
HO-68 27 Feb 18:13:37 18:20:14 42° 60° (ENE) 18:26:51 435.675
XW-2A 27 Feb 18:13:45 18:16:30 23° 67° (ENE) 18:19:19 145.665 - 145.685
DOVE 4 27 Feb 18:16:15 18:20:17 51° 261° (W) 18:24:27 437.250
CUBEBUG 2 27 Feb 18:32:18 18:35:20 18° 60° (ENE) 18:38:25 437.445
CUBESAT XI-V 27 Feb 18:35:56 18:39:55 30° 295° (WNW) 18:43:53 437.345
SEEDS 27 Feb 18:38:20 18:41:46 25° 65° (ENE) 18:45:12 437.485
NO-84 27 Feb 18:41:56 18:45:11 40° 341° (NNW) 18:48:45 435.350 FM
KAITUO 1B 27 Feb 18:44:01 18:47:25 30° 264° (W) 18:50:51 145.475/437.950
XW-2F 27 Feb 18:53:48 18:56:48 21° 267° (W) 18:59:49 145.980 - 146.000
XW-2D 27 Feb 19:00:32 19:03:12 18° 269° (W) 19:05:52 145.860 - 145.880
UWE-3 27 Feb 19:03:28 19:06:58 22° 62° (ENE) 19:10:33 435.000/436.395/437.385
XW-2B 27 Feb 19:05:54 19:08:22 16° 269° (W) 19:10:50 145.730 - 145.750
YUBILEINY 27 Feb 19:08:23 19:12:22 13° 46° (NE) 19:16:19 435.215
CUTE-I 27 Feb 19:11:02 19:15:22 25° 268° (W) 19:19:44 437.470
RS-15 27 Feb 19:11:05 19:23:09 67° 317° (NW) 19:35:34 29.354- 29.394
XW-2C 27 Feb 19:15:23 19:17:14 13° 271° (W) 19:19:05 145.795 - 145.815
M-CUBED/EXP-1 PRIME 27 Feb 19:17:08 19:20:32 33° 297° (WNW) 19:24:10 437.505
NUDT-PHONESAT 27 Feb 19:17:17 19:19:22 14° 270° (W) 19:21:27 437.300
ZACube-1 27 Feb 19:18:42 19:21:58 20° 61° (ENE) 19:25:16 437.345
CUTE 1.7 + AOD 2 27 Feb 19:20:45 19:25:02 88° 249° (WSW) 19:29:20 437.475
XW-2A 27 Feb 19:46:20 19:49:13 25° 265° (W) 19:52:08 145.665 - 145.685
STARS 27 Feb 19:47:03 19:47:41 10° 306° (NW) 19:48:19 437.465
PCSat 27 Feb 19:50:31 19:52:40 12° 344° (NNW) 19:54:49 145.827
AAUSAT CUBESAT 2 27 Feb 19:54:08 19:58:17 73° 74° (ENE) 20:02:25 437.432
HO-68 27 Feb 20:01:01 20:07:53 48° 261° (W) 20:14:47 435.675
AO-73 27 Feb 20:04:15 20:08:32 45° 70° (ENE) 20:12:55 145.935
STRAND 1 27 Feb 20:04:48 20:09:58 68° 103° (ESE) 20:15:05 437.568
CUBEBUG 2 27 Feb 20:06:57 20:11:25 66° 258° (WSW) 20:16:05 437.445
Oscar 11 27 Feb 20:07:45 20:11:52 42° 70° (ENE) 20:16:00 .
SEEDS 27 Feb 20:13:21 20:17:18 37° 263° (W) 20:21:15 437.485
NO-84 27 Feb 20:20:19 20:23:32 28° 3° (N) 20:27:00 435.350 FM
UWE-3 27 Feb 20:38:43 20:43:06 50° 261° (W) 20:47:38 435.000/436.395/437.385
ZACube-1 27 Feb 20:53:24 20:57:50 57° 260° (W) 21:02:22 437.345
DELFI C3 27 Feb 21:02:36 21:06:26 51° 72° (ENE) 21:10:16 145.870
YUBILEINY 27 Feb 21:03:13 21:11:44 53° 72° (ENE) 21:20:10 435.215
RS-15 27 Feb 21:27:12 21:38:26 38° 348° (NNW) 21:49:44 29.354- 29.394
AAUSAT CUBESAT 2 27 Feb 21:32:34 21:34:14 12° 272° (W) 21:35:54 437.432
PCSat 27 Feb 21:37:05 21:38:41 11° 11° (N) 21:40:18 145.827
FO-29 27 Feb 21:39:32 21:43:26 15° 79° (E) 21:47:10 435.910
AO-73 27 Feb 21:41:27 21:44:59 22° 268° (W) 21:48:36 145.935
Oscar 11 27 Feb 21:44:46 21:48:11 22° 268° (W) 21:51:36 .
STRAND 1 27 Feb 21:44:55 21:48:39 21° 302° (WNW) 21:52:23 437.568
PRISM 27 Feb 21:45:02 21:48:45 34° 97° (E) 21:52:29 437.425
NO-84 27 Feb 21:58:04 22:01:49 49° 23° (NNE) 22:05:52 435.350 FM
SO-50 27 Feb 22:07:25 22:11:55 48° 121° (ESE) 22:16:21 436.795
LO-87 27 Feb 22:28:53 22:32:22 61° 73° (ENE) 22:35:54 145.935 - 145.965
ESTCUBE 1 27 Feb 22:32:08 22:36:20 39° 68° (ENE) 22:40:32 437.505/2401.250
SPROUT 27 Feb 22:34:14 22:36:13 13° 58° (ENE) 22:38:14 437.525
DELFI C3 27 Feb 22:39:06 22:41:32 16° 270° (W) 22:43:58 145.870
O/OREOS (USA 219) 27 Feb 22:44:49 22:49:13 59° 111° (ESE) 22:53:40 437.305
TIGRISAT 27 Feb 22:45:49 22:50:30 63° 101° (E) 22:55:07 435.000
VELOX 1 27 Feb 22:46:09 22:49:25 21° 62° (ENE) 22:52:43 145.980
UNISAT 6 27 Feb 22:46:24 22:51:07 68° 102° (ESE) 22:55:45 437.425
50 SAT 27 Feb 22:48:04 22:49:09 11° 60° (ENE) 22:50:14 437.505
YUBILEINY 27 Feb 23:00:25 23:08:20 41° 275° (W) 23:16:13 435.215
EO-79 27 Feb 23:12:15 23:14:08 13° 88° (E) 23:16:01 145.935-145.965
AIST 2D 27 Feb 23:17:01 23:19:42 20° 93° (E) 23:22:22 435.315
PCSat 27 Feb 23:19:39 23:24:08 25° 37° (NE) 23:28:35 145.827
PRISM 27 Feb 23:20:34 23:23:56 25° 295° (WNW) 23:27:18 437.425
FO-29 27 Feb 23:22:19 23:30:00 70° 101° (ESE) 23:36:55 435.910
NANOSAT C BR1 27 Feb 23:26:41 23:29:26 16° 90° (E) 23:32:10 145.865
POLYITAN 1 27 Feb 23:29:42 23:32:50 19° 92° (E) 23:35:56 437.675
QB50P2 27 Feb 23:32:38 23:35:59 22° 93° (E) 23:39:19 145.880/145.840
NO-84 27 Feb 23:35:43 23:39:32 43° 221° (SW) 23:43:35 435.350 FM
RS-15 27 Feb 23:43:17 23:54:55 43° 22° (NNE) 00:06:18 29.354- 29.394
SO-50 27 Feb 23:48:23 23:52:33 32° 321° (NW) 23:56:42 436.795
DX 1 28 Feb 00:03:08 00:07:20 53° 70° (ENE) 00:11:34 434.975-435.025
LO-87 28 Feb 00:05:26 00:06:15 11° 272° (W) 00:07:03 145.935 - 145.965
SPROUT 28 Feb 00:07:15 00:11:31 83° 254° (WSW) 00:15:50 437.525
UKube-1 28 Feb 00:09:26 00:13:32 45° 69° (ENE) 00:17:39 .
ESTCUBE 1 28 Feb 00:09:31 00:13:15 25° 266° (W) 00:17:01 437.505/2401.250
50 SAT 28 Feb 00:18:19 00:21:47 66° 258° (WSW) 00:25:16 437.505
VELOX 1 28 Feb 00:21:20 00:25:34 49° 260° (W) 00:29:51 145.980
TIGRISAT 28 Feb 00:23:25 00:26:44 19° 300° (WNW) 00:30:01 435.000
UNISAT 6 28 Feb 00:24:09 00:27:19 18° 301° (WNW) 00:30:26 437.425
O/OREOS (USA 219) 28 Feb 00:25:34 00:29:01 21° 312° (NW) 00:32:29 437.305
DUCHIFAT 1 28 Feb 00:31:48 00:36:06 67° 102° (ESE) 00:40:19 145.980
EO-79 28 Feb 00:46:07 00:50:25 74° 286° (WNW) 00:54:41 145.935-145.965
AIST 2D 28 Feb 00:49:49 00:53:01 31° 291° (WNW) 00:56:12 435.315
NANOSAT C BR1 28 Feb 01:01:18 01:05:30 56° 288° (WNW) 01:09:41 145.865
PCSat 28 Feb 01:02:41 01:08:09 80° 238° (WSW) 01:13:34 145.827
POLYITAN 1 28 Feb 01:04:43 01:08:53 48° 289° (WNW) 01:13:01 437.675
FO-29 28 Feb 01:07:53 01:14:24 31° 303° (WNW) 01:20:27 435.910
QB50P2 28 Feb 01:07:54 01:11:58 42° 291° (WNW) 01:16:00 145.880/145.840
BUGSAT 1 28 Feb 01:16:49 01:21:06 73° 103° (ESE) 01:25:20 437.445
ITUPSAT 1 28 Feb 01:22:09 01:25:58 24° 61° (ENE) 01:29:46 437.325
Gurwin Techsat 1B 28 Feb 01:23:27 01:26:49 17° 89° (E) 01:30:09 435.225
BEESAT 28 Feb 01:26:33 01:30:28 26° 63° (ENE) 01:34:26 436.000
SO-50 28 Feb 01:32:31 01:34:25 12° 344° (NNW) 01:36:19 436.795
DX 1 28 Feb 01:40:53 01:43:50 18° 269° (W) 01:46:49 434.975-435.025
UKube-1 28 Feb 01:46:32 01:49:46 21° 267° (W) 01:53:02 .
Oscar 19 28 Feb 01:52:58 01:57:57 48° 100° (E) 02:02:53 437.125/150
RS-15 28 Feb 01:56:50 02:09:19 86° 51° (NE) 02:21:17 29.354- 29.394
DUCHIFAT 1 28 Feb 02:08:43 02:11:16 16° 300° (WNW) 02:13:49 145.980
EO-79 28 Feb 02:24:44 02:25:24 10° 305° (NW) 02:26:04 145.935-145.965
AO-7 28 Feb 02:34:23 02:38:52 15° 85° (E) 02:43:20 .
ITAMSAT 1 28 Feb 02:34:57 02:37:30 14° 87° (E) 02:40:02 435.822/435.867
PCSat 28 Feb 02:48:08 02:50:39 13° 257° (WSW) 02:53:11 145.827
BUGSAT 1 28 Feb 02:53:34 02:55:55 15° 301° (WNW) 02:58:16 437.445
MOZHAYETS 4 28 Feb 02:57:05 03:01:40 63° 72° (ENE) 03:06:17
ITUPSAT 1 28 Feb 02:58:49 03:03:29 51° 260° (W) 03:08:13 437.325
Gurwin Techsat 1B 28 Feb 03:02:02 03:07:23 78° 287° (WNW) 03:12:42 435.225
BEESAT 28 Feb 03:03:27 03:08:02 45° 261° (W) 03:12:40 436.000
KKS-1 28 Feb 03:06:53 03:10:27 24° 63° (ENE) 03:14:02 437.445
SO-50 28 Feb 03:15:43 03:16:57 11° 10° (N) 03:18:10 436.795
STARS 28 Feb 03:32:36 03:35:53 21° 62° (ENE) 03:39:11 437.465
Oscar 19 28 Feb 03:32:46 03:37:01 27° 298° (WNW) 03:41:16 437.125/150
AO-85 28 Feb 03:50:23 03:54:26 34° 119° (ESE) 03:58:15 145.980
CUBESAT XI-V 28 Feb 04:04:49 04:09:20 52° 71° (ENE) 04:13:50 437.345
RS-15 28 Feb 04:10:17 04:20:29 33° 256° (WSW) 04:30:22 29.354- 29.394
ITAMSAT 1 28 Feb 04:12:26 04:17:43 89° 106° (ESE) 04:22:58 435.822/435.867
AO-7 28 Feb 04:24:52 04:33:13 69° 106° (ESE) 04:41:27 .
M-CUBED/EXP-1 PRIME 28 Feb 04:32:33 04:35:44 54° 66° (ENE) 04:38:59 437.505
MOZHAYETS 4 28 Feb 04:36:14 04:39:16 17° 271° (W) 04:42:17
KKS-1 28 Feb 04:42:36 04:46:48 42° 261° (W) 04:51:02 437.445
Gurwin Techsat 1B 28 Feb 04:43:41 04:46:29 15° 307° (NW) 04:49:17 435.225
SO-50 28 Feb 04:55:17 04:59:01 24° 34° (NE) 05:02:43 436.795
STARS 28 Feb 05:07:41 05:11:56 49° 260° (W) 05:16:13 437.465
AO-85 28 Feb 05:30:45 05:34:49 36° 317° (NW) 05:38:40 145.980
BEESAT 2 28 Feb 05:33:53 05:34:50 11° 109° (ESE) 05:35:48 435.950
CUBESAT XI-V 28 Feb 05:43:34 05:47:00 20° 269° (W) 05:50:27 437.345
CUTE-I 28 Feb 05:44:18 05:47:33 16° 88° (E) 05:50:46 437.470
STRAND 1 28 Feb 05:46:43 05:50:39 23° 60° (ENE) 05:54:37 437.568
ITAMSAT 1 28 Feb 05:53:16 05:56:29 17° 305° (NW) 05:59:42 435.822/435.867
M-CUBED/EXP-1 PRIME 28 Feb 06:10:09 06:10:37 10° 265° (W) 06:11:05 437.505
DOVE 4 28 Feb 06:10:23 06:14:41 33° 96° (E) 06:19:11 437.250
KAITUO 1B 28 Feb 06:11:54 06:14:45 20° 93° (E) 06:17:35 145.475/437.950
AO-7 28 Feb 06:18:13 06:25:28 35° 307° (NW) 06:32:42 .
XW-2F 28 Feb 06:21:39 06:25:03 30° 95° (E) 06:28:26 145.980 - 146.000
BEESAT 3 28 Feb 06:22:34 06:26:28 73° 125° (SE) 06:30:27 437.485
XW-2D 28 Feb 06:28:11 06:31:47 37° 97° (E) 06:35:20 145.860 - 145.880
XW-2B 28 Feb 06:33:17 06:36:57 41° 98° (E) 06:40:33 145.730 - 145.750
SO-50 28 Feb 06:35:24 06:39:54 69° 235° (SW) 06:44:21 436.795
XW-2C 28 Feb 06:42:00 06:45:46 53° 99° (E) 06:49:29 145.795 - 145.815
NUDT-PHONESAT 28 Feb 06:42:20 06:45:58 43° 99° (E) 06:49:32 437.300
Tancredo 1 28 Feb 06:48:07 06:49:51 14° 136° (SE) 06:51:35 437.200
LilacSat-2 28 Feb 07:02:19 07:06:11 86° 284° (WNW) 07:10:00 437.200
CUTE 1.7 + AOD 2 28 Feb 07:03:43 07:05:35 13° 88° (E) 07:07:26 437.475
XW-2A 28 Feb 07:05:08 07:07:15 15° 92° (E) 07:09:21 145.665 - 145.685
BEESAT 2 28 Feb 07:07:58 07:11:56 88° 116° (ESE) 07:15:58 435.950
O/OREOS (USA 219) 28 Feb 07:12:07 07:16:09 30° 53° (NE) 07:20:11 437.305
AO-85 28 Feb 07:15:09 07:16:20 11° 339° (NNW) 07:17:31 145.980
CUTE-I 28 Feb 07:22:51 07:28:16 82° 287° (WNW) 07:33:39 437.470
STRAND 1 28 Feb 07:24:20 07:29:25 61° 258° (WSW) 07:34:34 437.568
HO-68 28 Feb 07:24:36 07:30:43 30° 93° (E) 07:36:49 435.675
KAITUO 1B 28 Feb 07:45:26 07:48:54 35° 291° (WNW) 07:52:19 145.475/437.950
DOVE 4 28 Feb 07:48:05 07:52:23 35° 292° (WNW) 07:56:53 437.250
SEEDS 28 Feb 07:53:26 07:57:01 27° 94° (E) 08:00:34 437.485
CUBEBUG 2 28 Feb 07:54:34 07:58:20 23° 91° (E) 08:02:02 437.445
XW-2F 28 Feb 07:55:59 07:59:07 24° 294° (WNW) 08:02:12 145.980 - 146.000
FO-29 28 Feb 07:56:47 08:00:29 14° 43° (NE) 08:04:14 435.910
BEESAT 3 28 Feb 08:01:33 08:04:31 20° 326° (NW) 08:07:32 437.485
XW-2D 28 Feb 08:02:54 08:05:46 20° 295° (WNW) 08:08:36 145.860 - 145.880
ISS 28 Feb 08:05:07 08:08:19 51° 150° (SSE) 08:11:32 437.550
XW-2B 28 Feb 08:08:09 08:10:52 19° 296° (WNW) 08:13:34 145.730 - 145.750
AO-7 28 Feb 08:13:22 08:15:47 12° 332° (NNW) 08:18:13 .
TIGRISAT 28 Feb 08:14:12 08:16:09 13° 56° (NE) 08:18:06 435.000
UNISAT 6 28 Feb 08:14:36 08:16:51 14° 56° (NE) 08:19:05 437.425
NUDT-PHONESAT 28 Feb 08:17:02 08:19:35 18° 297° (WNW) 08:22:08 437.300
XW-2C 28 Feb 08:17:17 08:19:35 15° 298° (WNW) 08:21:52 145.795 - 145.815
YUBILEINY 28 Feb 08:20:45 08:22:16 11° 67° (ENE) 08:23:48 435.215
Tancredo 1 28 Feb 08:22:23 08:25:37 70° 154° (SSE) 08:28:53 437.200
UWE-3 28 Feb 08:24:50 08:28:51 28° 93° (E) 08:32:47 435.000/436.395/437.385
XW-2A 28 Feb 08:36:56 08:40:13 39° 289° (WNW) 08:43:28 145.665 - 145.685
PRISM 28 Feb 08:37:32 08:41:19 39° 69° (ENE) 08:45:08 437.425
CUTE 1.7 + AOD 2 28 Feb 08:37:42 08:41:55 72° 287° (WNW) 08:46:06 437.475
ZACube-1 28 Feb 08:38:34 08:42:13 23° 92° (E) 08:45:47 437.345
BEESAT 2 28 Feb 08:47:27 08:50:16 18° 328° (NNW) 08:53:07 435.950
O/OREOS (USA 219) 28 Feb 08:51:24 08:55:39 38° 252° (WSW) 08:59:54 437.305
CUTE-I 28 Feb 09:04:27 09:07:31 16° 306° (NW) 09:10:34 437.470
AAUSAT CUBESAT 2 28 Feb 09:07:54 09:12:02 84° 102° (ESE) 09:16:08 437.432
HO-68 28 Feb 09:11:52 09:18:55 64° 293° (WNW) 09:25:57 435.675
AO-73 28 Feb 09:24:31 09:29:01 58° 100° (E) 09:33:24 145.935
Oscar 11 28 Feb 09:27:02 09:31:18 53° 100° (E) 09:35:30 .
SEEDS 28 Feb 09:29:01 09:32:44 32° 293° (WNW) 09:36:26 437.485
CUBEBUG 2 28 Feb 09:30:34 09:35:11 49° 290° (WNW) 09:39:43 437.445
FO-29 28 Feb 09:36:35 09:43:41 49° 64° (ENE) 09:51:11 435.910
ISS 28 Feb 09:41:35 09:44:49 51° 349° (N) 09:48:04 437.550
TIGRISAT 28 Feb 09:47:29 09:52:02 81° 76° (ENE) 09:56:44 435.000
UNISAT 6 28 Feb 09:48:14 09:52:49 88° 75° (ENE) 09:57:31 437.425
DUCHIFAT 1 28 Feb 09:55:06 09:55:56 10° 56° (NE) 09:56:47 145.980
AIST 2D 28 Feb 09:55:44 09:57:43 14° 63° (ENE) 09:59:43 435.315
Tancredo 1 28 Feb 09:58:52 10:02:02 46° 353° (N) 10:05:11 437.200
UWE-3 28 Feb 10:01:03 10:05:23 38° 292° (WNW) 10:09:38 435.000/436.395/437.385
EO-79 28 Feb 10:07:53 10:10:30 16° 60° (ENE) 10:13:11 145.935-145.965
YUBILEINY 28 Feb 10:08:26 10:16:52 53° 89° (E) 10:25:17 435.215
DELFI C3 28 Feb 10:10:40 10:14:30 50° 99° (E) 10:18:19 145.870
PRISM 28 Feb 10:13:39 10:16:46 21° 267° (W) 10:19:54 437.425
ZACube-1 28 Feb 10:14:20 10:18:41 44° 291° (WNW) 10:22:56 437.345
NANOSAT C BR1 28 Feb 10:22:07 10:25:13 20° 62° (ENE) 10:28:22 145.865
POLYITAN 1 28 Feb 10:25:35 10:28:58 24° 64° (ENE) 10:32:24 437.675
QB50P2 28 Feb 10:28:31 10:32:04 26° 65° (ENE) 10:35:38 145.880/145.840
AO-85 28 Feb 10:38:19 10:40:52 16° 30° (NNE) 10:43:23 145.980
BUGSAT 1 28 Feb 10:38:20 10:39:05 10° 56° (NE) 10:39:50 437.445
AAUSAT CUBESAT 2 28 Feb 10:45:15 10:46:53 12° 302° (WNW) 10:48:31 437.432
HO-68 28 Feb 11:01:09 11:05:21 17° 315° (NW) 11:09:34 435.675
AO-73 28 Feb 11:01:37 11:04:50 19° 299° (WNW) 11:07:59 145.935
Oscar 11 28 Feb 11:04:00 11:07:04 19° 298° (WNW) 11:10:07 .
ISS 28 Feb 11:18:23 11:21:38 48° 10° (N) 11:24:50 437.550
FO-29 28 Feb 11:21:45 11:28:44 44° 265° (W) 11:36:11 435.910
LO-87 28 Feb 11:25:41 11:29:11 46° 99° (E) 11:32:40 145.935 - 145.965
DUCHIFAT 1 28 Feb 11:26:39 11:30:52 78° 73° (ENE) 11:35:07 145.980
AIST 2D 28 Feb 11:27:06 11:30:35 50° 261° (W) 11:34:05 435.315
TIGRISAT 28 Feb 11:27:15 11:29:22 13° 273° (W) 11:31:29 435.000
UNISAT 6 28 Feb 11:28:30 11:30:12 12° 274° (W) 11:31:56 437.425
Tancredo 1 28 Feb 11:35:25 11:38:37 54° 13° (NNE) 11:41:48 437.200
Oscar 19 28 Feb 11:36:31 11:39:48 17° 56° (ENE) 11:43:05 437.125/150
EO-79 28 Feb 11:41:38 11:45:49 63° 258° (WSW) 11:50:05 145.935-145.965
DELFI C3 28 Feb 11:46:23 11:48:57 17° 298° (WNW) 11:51:31 145.870
SPROUT 28 Feb 11:50:52 11:52:59 13° 88° (E) 11:55:07 437.525
AO-7 28 Feb 11:50:59 11:53:27 12° 28° (NNE) 11:55:54 .
NANOSAT C BR1 28 Feb 11:56:33 12:00:37 48° 260° (W) 12:04:46 145.865
ESTCUBE 1 28 Feb 11:57:13 12:01:36 51° 100° (E) 12:05:58 437.505/2401.250
POLYITAN 1 28 Feb 12:00:32 12:04:33 40° 262° (W) 12:08:37 437.675
QB50P2 28 Feb 12:03:50 12:07:44 35° 263° (W) 12:11:41 145.880/145.840
YUBILEINY 28 Feb 12:05:42 12:13:54 42° 292° (WNW) 12:22:09 435.215
VELOX 1 28 Feb 12:07:53 12:11:27 23° 94° (E) 12:15:01 145.980
BUGSAT 1 28 Feb 12:09:37 12:13:42 80° 73° (ENE) 12:17:52 437.445
AO-85 28 Feb 12:17:56 12:21:52 83° 52° (NE) 12:25:49 145.980
Gurwin Techsat 1B 28 Feb 12:47:32 12:52:23 38° 65° (ENE) 12:57:16 435.225
ISS 28 Feb 12:54:55 12:58:10 60° 208° (SSW) 13:01:24 437.550
BEESAT 3 28 Feb 12:59:01 13:02:18 23° 37° (NE) 13:05:34 437.485
LO-87 28 Feb 13:00:06 13:02:19 16° 297° (WNW) 13:04:31 145.935 - 145.965
DUCHIFAT 1 28 Feb 13:05:30 13:07:06 12° 273° (W) 13:08:41 145.980
Tancredo 1 28 Feb 13:11:46 13:14:52 42° 212° (SSW) 13:17:56 437.200
50 SAT 28 Feb 13:12:29 13:15:58 79° 104° (ESE) 13:19:26 437.505
Oscar 19 28 Feb 13:13:21 13:18:30 82° 256° (WSW) 13:23:40 437.125/150
DX 1 28 Feb 13:23:28 13:27:47 59° 102° (ESE) 13:32:06 434.975-435.025
SPROUT 28 Feb 13:25:05 13:29:24 71° 286° (WNW) 13:33:41 437.525
UKube-1 28 Feb 13:28:26 13:32:39 48° 100° (E) 13:36:50 .
ESTCUBE 1 28 Feb 13:34:45 13:38:05 21° 298° (WNW) 13:41:24 437.505/2401.250
AO-7 28 Feb 13:36:29 13:43:46 35° 53° (NE) 13:51:02 .
VELOX 1 28 Feb 13:43:54 13:48:04 41° 292° (WNW) 13:52:13 145.980
BEESAT 2 28 Feb 13:45:03 13:48:34 27° 39° (NE) 13:52:03 435.950
BUGSAT 1 28 Feb 13:48:34 13:49:39 11° 273° (W) 13:50:44 437.445
ITAMSAT 1 28 Feb 13:55:32 14:00:05 31° 63° (ENE) 14:04:38 435.822/435.867
AO-85 28 Feb 14:00:22 14:01:39 11° 250° (WSW) 14:02:56 145.980
YUBILEINY 28 Feb 14:12:24 14:13:50 10° 319° (NW) 14:15:17 435.215
Gurwin Techsat 1B 28 Feb 14:27:31 14:32:21 35° 264° (W) 14:37:14 435.225
ISS 28 Feb 14:32:54 14:34:04 11° 226° (SW) 14:35:12 437.550
BEESAT 3 28 Feb 14:36:16 14:40:14 58° 236° (WSW) 14:44:09 437.485
MOZHAYETS 4 28 Feb 14:50:43 14:52:09 11° 86° (E) 14:53:34
ITUPSAT 1 28 Feb 14:55:40 14:59:56 31° 96° (E) 15:04:09 437.325
Oscar 19 28 Feb 14:56:43 14:58:37 12° 274° (W) 15:00:32 437.125/150
BEESAT 28 Feb 14:59:43 15:04:06 34° 97° (E) 15:08:25 436.000
DX 1 28 Feb 15:00:37 15:03:33 18° 300° (WNW) 15:06:30 434.975-435.025
UKube-1 28 Feb 15:05:10 15:08:23 21° 298° (WNW) 15:11:36 .
BEESAT 2 28 Feb 15:22:37 15:26:32 47° 239° (WSW) 15:30:24 435.950
AO-7 28 Feb 15:27:41 15:36:01 70° 254° (WSW) 15:44:24 .
ITAMSAT 1 28 Feb 15:34:28 15:39:24 42° 262° (W) 15:44:23 435.822/435.867
PCSat 28 Feb 15:47:46 15:52:53 45° 115° (ESE) 15:58:03 145.827
RS-15 28 Feb 16:24:51 16:35:21 38° 106° (ESE) 16:46:08 29.354- 29.394
MOZHAYETS 4 28 Feb 16:25:22 16:30:00 90° 103° (ESE) 16:34:36
KKS-1 28 Feb 16:29:47 16:33:38 27° 95° (E) 16:37:28 437.445
ITUPSAT 1 28 Feb 16:33:25 16:37:48 36° 294° (WNW) 16:42:10 437.325
NO-84 28 Feb 16:34:12 16:37:10 37° 138° (SE) 16:40:25 435.350 FM
BEESAT 28 Feb 16:37:34 16:41:51 33° 295° (WNW) 16:46:06 436.000
STARS 28 Feb 16:53:38 16:57:09 23° 93° (E) 17:00:40 437.465
KAITUO 1B 28 Feb 16:55:46 16:58:22 18° 63° (ENE) 17:00:59 145.475/437.950
XW-2F 28 Feb 17:06:04 17:09:17 26° 67° (ENE) 17:12:31 145.980 - 146.000
CUTE-I 28 Feb 17:09:02 17:13:54 37° 65° (ENE) 17:18:48 437.470
XW-2D 28 Feb 17:12:47 17:16:13 32° 68° (ENE) 17:19:41 145.860 - 145.880
